{"data":{"norad_id":66232,"epoch":"2026-09-20T22:14:24.533376Z","epoch_age_seconds":59754,"freshness":"FRESH","line1":"1 66232U 25244AC  26263.92667284  .00018477  00000+0  55659-3 0  9998","line2":"2 66232  53.1604  41.4576 0000719  90.6789 269.4296 15.34402467 51575","mean_motion":15.34402467,"eccentricity":7.19e-5,"inclination_deg":53.1604,"raan_deg":41.4576,"arg_perigee_deg":90.6789,"mean_anomaly_deg":269.4296,"bstar":0.00055659,"rev_number":5157,"period_min":93.847607193661,"perigee_km":462.20405188696,"apogee_km":463.1877636591,"semimajor_km":6840.832907773,"source":"CELESTRAK","updated_at":"2026-09-21T09:00:35.845078Z"}}